Track YAOGAN-30 E now! 10-day predictions YAOGAN-30 E is classified as:
1 43029U 17075B 23081.39773433 .00004093 00000-0 40071-3 0 9992 2 43029 34.9964 218.5199 0005126 39.0295 321.0712 14.91795027290059